FDX5388 PANC-TNCM

Flight info

Callsign FDX5388
Flight time N/A
Altitude 31000
Route ANCH1 NOEND JAGIT NCA13 YXY 60N130W 57N120W 53N110W/N0482F330 VLN MOT KP03C KP84E KG69I SPI/N0483F350 KI45O VXV CAE DEDDY Y436 JAINS/M082F350 L451 LETON/N0479F350 L451 IORIO FIPEK Y355 SLUGO ULUBA1
Aircraft MD11/H-SDE1E2E3FGHIJ2J3J4J5M1RWXY/LB1D1

Departure

Time 2026-05-06 03:03
Airport Ted Stevens Anchorage International Airport (PANC)

Arrival

Time N/A
Airport Princess Juliana International Airport (TNCM)
Time Latitude Longitude Altitude Speed Heading
2026-05-06 02:19 61.18932 -150.00244 141 ft 0 kts 255°
2026-05-06 02:25 61.18932 -150.00243 140 ft 0 kts 255°
2026-05-06 02:36 61.18933 -150.00243 140 ft 0 kts 255°
2026-05-06 02:37 61.18933 -150.00242 139 ft 0 kts 255°
2026-05-06 02:41 61.18935 -150.00227 134 ft 2 kts 252°
2026-05-06 02:42 61.18940 -150.00194 139 ft 2 kts 249°
2026-05-06 02:42 61.18946 -150.00162 139 ft 2 kts 243°
2026-05-06 02:42 61.18955 -150.00133 136 ft 2 kts 230°
2026-05-06 02:42 61.18967 -150.00109 135 ft 2 kts 203°
2026-05-06 02:43 61.18983 -150.00102 135 ft 2 kts 172°
2026-05-06 02:43 61.18993 -150.00105 139 ft 1 kts 164°
2026-05-06 02:43 61.18993 -150.00106 139 ft 0 kts 164°
2026-05-06 02:47 61.18992 -150.00105 139 ft 0 kts 164°
2026-05-06 02:48 61.18989 -150.00103 139 ft 0 kts 164°
2026-05-06 02:48 61.18985 -150.00101 136 ft 0 kts 165°
2026-05-06 02:49 61.18983 -150.00100 135 ft 0 kts 165°
2026-05-06 02:49 61.18979 -150.00098 139 ft 1 kts 165°
2026-05-06 02:49 61.18966 -150.00090 136 ft 3 kts 165°
2026-05-06 02:49 61.18936 -150.00074 134 ft 6 kts 165°
2026-05-06 02:50 61.18889 -150.00048 131 ft 8 kts 165°
2026-05-06 02:50 61.18835 -150.00017 133 ft 8 kts 165°
2026-05-06 02:50 61.18785 -149.99989 136 ft 7 kts 165°
2026-05-06 02:50 61.18750 -149.99992 140 ft 5 kts 198°
2026-05-06 02:51 61.18730 -150.00041 136 ft 4 kts 243°
2026-05-06 02:51 61.18711 -150.00152 139 ft 15 kts 252°
2026-05-06 02:51 61.18657 -150.00367 132 ft 9 kts 207°
2026-05-06 02:51 61.18628 -150.00355 137 ft 4 kts 163°
2026-05-06 02:52 61.18586 -150.00328 137 ft 8 kts 164°
2026-05-06 02:52 61.18544 -150.00304 137 ft 11 kts 165°
2026-05-06 02:52 61.18459 -150.00256 137 ft 15 kts 165°
2026-05-06 02:52 61.18306 -150.00170 139 ft 19 kts 165°
2026-05-06 02:53 61.18264 -150.00147 137 ft 18 kts 165°
2026-05-06 02:53 61.18107 -150.00059 134 ft 17 kts 165°
2026-05-06 02:53 61.17925 -149.99956 140 ft 22 kts 164°
2026-05-06 02:53 61.17781 -149.99878 133 ft 21 kts 165°
2026-05-06 02:54 61.17647 -149.99802 137 ft 19 kts 164°
2026-05-06 02:54 61.17520 -149.99730 139 ft 18 kts 165°
2026-05-06 02:54 61.17400 -149.99662 137 ft 17 kts 165°
2026-05-06 02:54 61.17289 -149.99602 136 ft 16 kts 165°
2026-05-06 02:55 61.17184 -149.99542 138 ft 15 kts 164°
2026-05-06 02:55 61.17123 -149.99413 139 ft 13 kts 95°
2026-05-06 02:55 61.17123 -149.99238 138 ft 12 kts 90°
2026-05-06 02:55 61.17123 -149.99109 140 ft 15 kts 90°
2026-05-06 02:56 61.17117 -149.98856 136 ft 19 kts 93°
2026-05-06 02:56 61.17115 -149.98590 140 ft 18 kts 90°
2026-05-06 02:56 61.17114 -149.98329 140 ft 18 kts 91°
2026-05-06 02:56 61.17114 -149.98077 141 ft 17 kts 88°
2026-05-06 02:57 61.17117 -149.97836 141 ft 16 kts 89°
2026-05-06 02:57 61.17117 -149.97605 141 ft 16 kts 90°
2026-05-06 02:57 61.17122 -149.97372 134 ft 18 kts 86°
2026-05-06 02:57 61.17127 -149.97061 141 ft 25 kts 90°
2026-05-06 02:58 61.17125 -149.96678 141 ft 26 kts 90°
2026-05-06 02:58 61.17125 -149.96308 141 ft 25 kts 88°
2026-05-06 02:58 61.17128 -149.95959 133 ft 23 kts 90°
2026-05-06 02:58 61.17126 -149.95634 133 ft 22 kts 90°
2026-05-06 02:59 61.17126 -149.95323 133 ft 21 kts 90°
2026-05-06 02:59 61.17127 -149.95022 133 ft 21 kts 89°
2026-05-06 02:59 61.17066 -149.94854 132 ft 14 kts 184°
2026-05-06 02:59 61.16990 -149.94920 129 ft 11 kts 238°
2026-05-06 03:00 61.16983 -149.94995 128 ft 0 kts 269°
2026-05-06 03:01 61.16980 -149.95505 136 ft 73 kts 270°
2026-05-06 03:01 61.16980 -149.97093 143 ft 145 kts 270°
2026-05-06 03:01 61.16958 -149.99610 141 ft 200 kts 273°
2026-05-06 03:01 61.16981 -150.00607 158 ft 210 kts 267°
2026-05-06 03:03 61.16997 -150.17344 3840 ft 230 kts 266°
2026-05-06 03:03 61.16931 -150.20872 4042 ft 262 kts 266°
2026-05-06 03:03 61.16848 -150.24840 4050 ft 278 kts 266°
2026-05-06 03:03 61.16768 -150.28746 4024 ft 265 kts 266°
2026-05-06 03:04 61.16689 -150.32560 4169 ft 268 kts 266°
2026-05-06 03:04 61.16728 -150.36394 4290 ft 274 kts 281°
2026-05-06 03:04 61.17504 -150.39971 4418 ft 273 kts 308°
2026-05-06 03:04 61.18879 -150.42316 4523 ft 270 kts 335°
2026-05-06 03:05 61.20682 -150.43168 4646 ft 269 kts
2026-05-06 03:05 61.22516 -150.42158 4891 ft 279 kts 30°
2026-05-06 03:05 61.24001 -150.39500 5040 ft 291 kts 55°
2026-05-06 03:05 61.24847 -150.35624 5044 ft 299 kts 80°
2026-05-06 03:06 61.24792 -150.31432 5445 ft 286 kts 105°
2026-05-06 03:06 61.24138 -150.27502 5580 ft 290 kts 113°
2026-05-06 03:06 61.23364 -150.23596 5730 ft 295 kts 113°
2026-05-06 03:06 61.22609 -150.19760 6514 ft 264 kts 113°
2026-05-06 03:07 61.21931 -150.16299 7270 ft 267 kts 113°
2026-05-06 03:07 61.21205 -150.12621 7835 ft 277 kts 113°
2026-05-06 03:07 61.20466 -150.08875 8598 ft 284 kts 113°
2026-05-06 03:07 61.19714 -150.05063 9277 ft 289 kts 113°
2026-05-06 03:08 61.19018 -150.01169 9928 ft 290 kts 109°
2026-05-06 03:08 61.18462 -149.97051 10320 ft 303 kts 104°
2026-05-06 03:08 61.18035 -149.92652 10470 ft 323 kts 101°
2026-05-06 03:08 61.17708 -149.87871 10631 ft 343 kts 98°
2026-05-06 03:09 61.17459 -149.82846 10959 ft 354 kts 96°
2026-05-06 03:09 61.17267 -149.77733 11554 ft 360 kts 95°
2026-05-06 03:09 61.17105 -149.72543 12149 ft 364 kts 94°
2026-05-06 03:09 61.16960 -149.67341 12721 ft 368 kts 94°
2026-05-06 03:10 61.16821 -149.61949 13310 ft 373 kts 94°
2026-05-06 03:10 61.16683 -149.56550 13879 ft 376 kts 94°
2026-05-06 03:10 61.16546 -149.51176 14363 ft 380 kts 94°
2026-05-06 03:10 61.16404 -149.45686 14830 ft 384 kts 94°
2026-05-06 03:11 61.16256 -149.40089 15341 ft 387 kts 94°
2026-05-06 03:11 61.16108 -149.34563 15818 ft 390 kts 94°
2026-05-06 03:11 61.15952 -149.28869 16263 ft 394 kts 94°
2026-05-06 03:11 61.15799 -149.23170 16762 ft 397 kts 94°
2026-05-06 03:12 61.15639 -149.17426 17226 ft 400 kts 94°
2026-05-06 03:12 61.15533 -149.13614 17526 ft 402 kts 94°
2026-05-06 03:12 61.15366 -149.07803 18004 ft 405 kts 94°
2026-05-06 03:12 61.15198 -149.01989 18388 ft 408 kts 94°
2026-05-06 03:13 61.15026 -148.96095 18790 ft 411 kts 94°
2026-05-06 03:13 61.14847 -148.90159 19175 ft 413 kts 94°
2026-05-06 03:13 61.14666 -148.84223 19532 ft 416 kts 94°
2026-05-06 03:13 61.14481 -148.78221 19896 ft 418 kts 94°
2026-05-06 03:14 61.14224 -148.70245 20368 ft 421 kts 95°
2026-05-06 03:14 61.14071 -148.66123 20625 ft 423 kts 95°
2026-05-06 03:14 61.13838 -148.60057 21001 ft 425 kts 95°
2026-05-06 03:14 61.13609 -148.53909 21415 ft 428 kts 95°
2026-05-06 03:15 61.13402 -148.47754 21771 ft 430 kts 94°
2026-05-06 03:15 61.13315 -148.41384 22162 ft 433 kts 91°
2026-05-06 03:15 61.13320 -148.35110 22524 ft 436 kts 90°
2026-05-06 03:15 61.13357 -148.28812 22937 ft 438 kts 90°
2026-05-06 03:16 61.13400 -148.22484 23334 ft 441 kts 90°
2026-05-06 03:16 61.13436 -148.16144 23683 ft 443 kts 90°
2026-05-06 03:16 61.13463 -148.09743 23979 ft 447 kts 91°
2026-05-06 03:16 61.13482 -148.03382 24333 ft 449 kts 91°
2026-05-06 03:17 61.13495 -147.96893 24650 ft 451 kts 91°
2026-05-06 03:17 61.13502 -147.90384 24950 ft 455 kts 91°
2026-05-06 03:17 61.13507 -147.83836 25283 ft 458 kts 91°
2026-05-06 03:17 61.13507 -147.77209 25618 ft 460 kts 91°
2026-05-06 03:18 61.13505 -147.70561 25945 ft 463 kts 91°
2026-05-06 03:18 61.13500 -147.63849 26254 ft 466 kts 91°
2026-05-06 03:18 61.13492 -147.57131 26577 ft 469 kts 91°
2026-05-06 03:18 61.13480 -147.50369 26880 ft 472 kts 92°
2026-05-06 03:19 61.13466 -147.43545 27174 ft 475 kts 92°
2026-05-06 03:19 61.13466 -147.43432 27180 ft 475 kts 92°